• In Portugal
  • List of Countries
  • For 7 days
  • Water Temperature
  • Satellite Maps
  • Weather Map
  • Weather Widgets
  • user-avatar
    Login

    Hourly Weather Arwayheer

    Today, 22 June, Friday

    Time Temperature Precipitation Wind Pressure Humidity
    00:00 +17°C° 0 mm 4 mps 606 mmHg 79%
    01:00 +16°C° 0 mm 3 mps 606 mmHg 80%
    02:00 +16°C° 0.1 mm 3 mps 606 mmHg 82%
    03:00 +14°C° 0.1 mm 3 mps 605 mmHg 84%
    04:00 +15°C° 0.1 mm 2 mps 605 mmHg 86%
    05:00 +15°C° 0 mm 2 mps 606 mmHg 81%
    06:00 +16°C° 0 mm 2 mps 606 mmHg 77%
    07:00 +17°C° 0 mm 2 mps 606 mmHg 71%
    08:00 +19°C° 0.1 mm 3 mps 607 mmHg 64%
    09:00 +20°C° 0.1 mm 3 mps 607 mmHg 57%
    10:00 +21°C° 0.1 mm 3 mps 607 mmHg 51%
    11:00 +22°C° 0.3 mm 3 mps 607 mmHg 48%
    12:00 +24°C° 0.3 mm 2 mps 607 mmHg 45%
    13:00 +25°C° 0 mm 2 mps 607 mmHg 39%
    14:00 +25°C° 0.2 mm 2 mps 607 mmHg 38%
    15:00 +26°C° 0.2 mm 2 mps 607 mmHg 37%
    16:00 +26°C° 0.2 mm 2 mps 607 mmHg 36%
    17:00 +25°C° 0.2 mm 2 mps 607 mmHg 40%
    18:00 +24°C° 0.2 mm 3 mps 607 mmHg 45%
    19:00 +22°C° 0 mm 3 mps 606 mmHg 51%
    20:00 +20°C° 0.8 mm 4 mps 606 mmHg 59%
    21:00 +19°C° 0.8 mm 5 mps 606 mmHg 68%
    22:00 +16°C° 0.8 mm 6 mps 605 mmHg 76%
    23:00 +15°C° 1.1 mm 6 mps 606 mmHg 79%

    Tomorrow, 23 June, Saturday

    Time Temperature Precipitation Wind Pressure Humidity
    00:00 +15°C° 1.1 mm 6 mps 606 mmHg 81%
    01:00 +15°C° 1.1 mm 5 mps 606 mmHg 84%
    02:00 +14°C° 1 mm 5 mps 606 mmHg 85%
    03:00 +14°C° 1 mm 5 mps 606 mmHg 86%
    04:00 +14°C° 1 mm 5 mps 606 mmHg 87%
    05:00 +14°C° 0.7 mm 5 mps 606 mmHg 86%
    06:00 +14°C° 0.7 mm 5 mps 606 mmHg 84%
    07:00 +14°C° 0.7 mm 5 mps 606 mmHg 82%
    08:00 +15°C° 0.4 mm 4 mps 606 mmHg 80%
    09:00 +15°C° 0.4 mm 4 mps 606 mmHg 78%
    10:00 +17°C° 0.4 mm 3 mps 606 mmHg 75%
    11:00 +16°C° 1.8 mm 3 mps 606 mmHg 78%
    12:00 +16°C° 1.8 mm 3 mps 606 mmHg 80%
    13:00 +16°C° 1.8 mm 3 mps 606 mmHg 83%
    14:00 +14°C° 1.4 mm 3 mps 605 mmHg 83%
    15:00 +14°C° 1.4 mm 4 mps 605 mmHg 83%
    16:00 +13°C° 1.4 mm 5 mps 605 mmHg 83%
    17:00 +11°C° 0.6 mm 6 mps 605 mmHg 83%
    18:00 +10°C° 0.6 mm 7 mps 604 mmHg 82%
    19:00 +9°C° 0.6 mm 8 mps 604 mmHg 82%
    20:00 +9°C° 0 mm 8 mps 604 mmHg 83%
    21:00 +9°C° 0 mm 7 mps 605 mmHg 83%
    22:00 +9°C° 0 mm 7 mps 605 mmHg 83%
    23:00 +9°C° 0.1 mm 7 mps 605 mmHg 84%

    Day after tomorrow, 24 June, Sunday

    Time Temperature Precipitation Wind Pressure Humidity
    00:00 +9°C° 0.1 mm 7 mps 605 mmHg 84%
    01:00 +9°C° 0.1 mm 6 mps 605 mmHg 84%
    02:00 +9°C° 0.1 mm 6 mps 605 mmHg 84%
    03:00 +9°C° 0.1 mm 6 mps 605 mmHg 84%
    04:00 +9°C° 0.1 mm 6 mps 605 mmHg 84%
    05:00 +9°C° 0.2 mm 6 mps 605 mmHg 83%
    06:00 +9°C° 0.2 mm 6 mps 606 mmHg 81%
    07:00 +9°C° 0.2 mm 6 mps 606 mmHg 79%
    08:00 +10°C° 0.1 mm 6 mps 607 mmHg 73%
    09:00 +13°C° 0.1 mm 6 mps 607 mmHg 67%
    10:00 +14°C° 0.1 mm 6 mps 608 mmHg 60%
    11:00 +15°C° 0 mm 5 mps 608 mmHg 55%
    12:00 +16°C° 0 mm 5 mps 608 mmHg 51%
    13:00 +17°C° 0 mm 5 mps 609 mmHg 46%
    14:00 +18°C° 0 mm 4 mps 608 mmHg 45%
    15:00 +19°C° 0 mm 4 mps 608 mmHg 45%
    16:00 +19°C° 0 mm 4 mps 608 mmHg 44%
    17:00 +19°C° 0 mm 3 mps 608 mmHg 48%
    18:00 +18°C° 0 mm 3 mps 608 mmHg 51%
    19:00 +17°C° 0 mm 2 mps 608 mmHg 55%
    20:00 +16°C° 0 mm 2 mps 607 mmHg 60%
    21:00 +15°C° 0 mm 1 mps 607 mmHg 65%
    22:00 +14°C° 0 mm 1 mps 607 mmHg 70%
    23:00 +13°C° 0 mm 1 mps 607 mmHg 69%

    25 June, Monday

    Time Temperature Precipitation Wind Pressure Humidity
    00:00 +13°C° 0 mm 1 mps 607 mmHg 68%
    01:00 +13°C° 0 mm 2 mps 606 mmHg 68%
    02:00 +13°C° 0 mm 2 mps 606 mmHg 67%
    03:00 +13°C° 0 mm 2 mps 606 mmHg 67%
    04:00 +12°C° 0 mm 2 mps 606 mmHg 66%
    05:00 +14°C° 0 mm 2 mps 607 mmHg 62%
    06:00 +15°C° 0 mm 2 mps 607 mmHg 57%
    07:00 +16°C° 0 mm 2 mps 608 mmHg 53%
    08:00 +18°C° 0 mm 2 mps 609 mmHg 47%
    09:00 +19°C° 0 mm 2 mps 609 mmHg 42%
    10:00 +21°C° 0 mm 2 mps 610 mmHg 36%
    11:00 +21°C° 0 mm 3 mps 610 mmHg 35%
    12:00 +22°C° 0 mm 4 mps 610 mmHg 34%
    13:00 +23°C° 0 mm 4 mps 610 mmHg 33%
    14:00 +23°C° 0.1 mm 5 mps 609 mmHg 34%
    15:00 +23°C° 0.1 mm 5 mps 609 mmHg 36%
    16:00 +22°C° 0.1 mm 5 mps 609 mmHg 37%
    17:00 +22°C° 0.3 mm 5 mps 609 mmHg 42%
    18:00 +21°C° 0.3 mm 4 mps 609 mmHg 47%
    19:00 +20°C° 0.3 mm 4 mps 608 mmHg 52%
    20:00 +18°C° 0.1 mm 4 mps 608 mmHg 56%
    21:00 +17°C° 0.1 mm 3 mps 608 mmHg 60%
    22:00 +16°C° 0.1 mm 3 mps 608 mmHg 64%
    23:00 +14°C° 0 mm 3 mps 608 mmHg 65%

    26 June, Tuesday

    Time Temperature Precipitation Wind Pressure Humidity
    00:00 +15°C° 0 mm 2 mps 608 mmHg 67%
    01:00 +14°C° 0 mm 2 mps 608 mmHg 68%
    02:00 +14°C° 0 mm 2 mps 608 mmHg 68%
    03:00 +13°C° 0 mm 2 mps 608 mmHg 68%
    04:00 +13°C° 0 mm 2 mps 608 mmHg 68%
    05:00 +14°C° 0 mm 2 mps 609 mmHg 65%
    06:00 +15°C° 0 mm 2 mps 609 mmHg 61%
    07:00 +16°C° 0 mm 3 mps 610 mmHg 57%
    08:00 +18°C° 0 mm 4 mps 610 mmHg 52%
    09:00 +19°C° 0 mm 4 mps 611 mmHg 46%
    10:00 +20°C° 0 mm 5 mps 611 mmHg 41%
    11:00 +21°C° 0 mm 6 mps 612 mmHg 38%
    12:00 +22°C° 0 mm 6 mps 612 mmHg 36%
    13:00 +22°C° 0 mm 6 mps 612 mmHg 34%
    14:00 +22°C° 0 mm 6 mps 612 mmHg 34%
    15:00 +22°C° 0 mm 6 mps 611 mmHg 34%
    16:00 +23°C° 0 mm 6 mps 611 mmHg 35%
    17:00 +22°C° 0 mm 5 mps 611 mmHg 38%
    18:00 +21°C° 0 mm 5 mps 611 mmHg 42%
    19:00 +20°C° 0 mm 4 mps 610 mmHg 46%
    20:00 +19°C° 0 mm 3 mps 610 mmHg 50%
    21:00 +17°C° 0 mm 2 mps 610 mmHg 55%
    22:00 +16°C° 0 mm 2 mps 610 mmHg 59%
    23:00 +15°C° 0 mm 2 mps 610 mmHg 60%

    27 June, Wednesday

    Time Temperature Precipitation Wind Pressure Humidity
    00:00 +15°C° 0 mm 1 mps 609 mmHg 62%
    01:00 +14°C° 0 mm 1 mps 609 mmHg 63%
    02:00 +14°C° 0 mm 1 mps 609 mmHg 65%
    03:00 +13°C° 0 mm 1 mps 609 mmHg 67%
    04:00 +12°C° 0 mm 0 mps 609 mmHg 69%
    05:00 +14°C° 0 mm 1 mps 609 mmHg 63%
    06:00 +16°C° 0 mm 1 mps 610 mmHg 58%
    07:00 +18°C° 0 mm 1 mps 611 mmHg 52%
    08:00 +19°C° 0 mm 1 mps 611 mmHg 49%
    09:00 +20°C° 0 mm 2 mps 611 mmHg 46%
    10:00 +21°C° 0 mm 2 mps 611 mmHg 42%
    11:00 +22°C° 0 mm 3 mps 611 mmHg 41%
    12:00 +24°C° 0 mm 3 mps 611 mmHg 39%
    13:00 +25°C° 0 mm 4 mps 611 mmHg 37%
    14:00 +25°C° 0.1 mm 4 mps 611 mmHg 38%
    15:00 +25°C° 0.1 mm 4 mps 611 mmHg 40%
    16:00 +25°C° 0.1 mm 4 mps 610 mmHg 41%
    17:00 +23°C° 0.1 mm 4 mps 610 mmHg 44%
    18:00 +22°C° 0.1 mm 4 mps 610 mmHg 47%
    19:00 +22°C° 0.1 mm 3 mps 610 mmHg 49%
    20:00 +20°C° 0.1 mm 3 mps 609 mmHg 54%
    21:00 +19°C° 0.1 mm 3 mps 609 mmHg 58%
    22:00 +18°C° 0.1 mm 4 mps 608 mmHg 63%
    23:00 +18°C° 0.1 mm 3 mps 608 mmHg 64%
    Show more